Location: Ravensburg
(48.5621°N, 13.4088°E)
Time: 18:58:36
(UTC+01:00)

ISS - Pass Details

Date: 12 February 2018
Orbit: 402 x 407 km, 51.6° (Epoch: 25 February)

Event Time Altitude Azimuth Distance (km) Brightness Sun altitude
Rises 18:32:40 0° 286° (WNW) 2,320 1.4 -12.1°
Reaches altitude 10° 18:35:05 10° 269° (W) 1,458 0.5 -12.5°
Maximum altitude 18:37:33 20° 220° (SW) 1,002 -1.2 -12.9°
Drops below altitude 10° 18:40:00 10° 171° (S) 1,452 -1.1 -13.3°
Enters shadow 18:42:18 - 154° (SSE) 2,260 -0.3 -13.7°
